Satellite-Ground Cal/Val Site Overpasses Predictions

Prediction of Satellite NPP Overpassing Cal/Val Site: Antarctic Dome C

Ground Cal/Val Site Location: Latitude: -75.10, Longitude: 123.35; Satellite-Ground Site NADIR distance within 100 km.

Table of predicted overpasses for the next 14.0 days since TLE Epoch: 10/29/2016
Interval Starting Time Ending Time Minimum Distance Time Minimum Distance (km)
1 10/30/2016 15:01:52 10/30/2016 15:02:16 10/30/2016 15:02:04 57.51
2 10/31/2016 14:43:03 10/31/2016 14:43:28 10/31/2016 14:43:15 51.62
3 11/01/2016 07:44:45 11/01/2016 07:45:04 11/01/2016 07:44:54 74.23
4 11/02/2016 07:25:51 11/02/2016 07:26:18 11/02/2016 07:26:05 33.64
5 11/04/2016 15:08:18 11/04/2016 15:08:26 11/04/2016 15:08:22 95.61
6 11/05/2016 14:49:18 11/05/2016 14:49:47 11/05/2016 14:49:32 15.74
7 11/07/2016 07:32:07 11/07/2016 07:32:37 11/07/2016 07:32:22 3.48
8 11/10/2016 14:55:34 11/10/2016 14:56:03 11/10/2016 14:55:48 21.21
9 11/11/2016 14:36:52 11/11/2016 14:37:07 11/11/2016 14:37:00 85.97


<
